When you browse on this site, cookies collect data to enhance your experience and personalize the content and advertising you see.
Visit our Privacy Policy to learn more. By continuing to use the site, you agree to this use of cookies and data.

Previsão horária em Pontypridd

Hoje, 14 Agosto, Sexta-feira

Tempo Temperatura Precipitação Vento Pressão Humidade
00:00 +18°C° 0.2 mm 2 m/s 749 mmHg 94%
01:00 +18°C° 0.1 mm 3 m/s 749 mmHg 94%
02:00 +18°C° 0.1 mm 3 m/s 749 mmHg 95%
03:00 +18°C° 0.1 mm 3 m/s 749 mmHg 95%
04:00 +18°C° 0.3 mm 3 m/s 749 mmHg 95%
05:00 +18°C° 0.3 mm 3 m/s 749 mmHg 95%
06:00 +18°C° 0.3 mm 2 m/s 750 mmHg 95%
07:00 +19°C° 0.3 mm 2 m/s 750 mmHg 93%
08:00 +19°C° 0.3 mm 2 m/s 750 mmHg 91%
09:00 +20°C° 0.3 mm 2 m/s 750 mmHg 89%
10:00 +20°C° 0 mm 2 m/s 750 mmHg 86%
11:00 +21°C° 0 mm 2 m/s 750 mmHg 83%
12:00 +21°C° 0 mm 2 m/s 750 mmHg 81%
13:00 +23°C° 0 mm 2 m/s 750 mmHg 80%
14:00 +23°C° 0 mm 2 m/s 750 mmHg 79%
15:00 +23°C° 0 mm 1 m/s 750 mmHg 77%
16:00 +23°C° 0 mm 1 m/s 750 mmHg 81%
17:00 +22°C° 0 mm 1 m/s 750 mmHg 84%
18:00 +22°C° 0 mm 1 m/s 750 mmHg 88%
19:00 +22°C° 0 mm 1 m/s 750 mmHg 88%
20:00 +21°C° 0 mm 1 m/s 750 mmHg 89%
21:00 +21°C° 0 mm 1 m/s 750 mmHg 90%
22:00 +19°C° 0.1 mm 2 m/s 750 mmHg 90%
23:00 +19°C° 0.1 mm 2 m/s 750 mmHg 90%

Amanhã, 15 Agosto, Sábado

Tempo Temperatura Precipitação Vento Pressão Humidade
00:00 +18°C° 0.1 mm 2 m/s 750 mmHg 90%
01:00 +17°C° 0.1 mm 3 m/s 750 mmHg 91%
02:00 +17°C° 0.1 mm 3 m/s 750 mmHg 92%
03:00 +16°C° 0.1 mm 3 m/s 750 mmHg 93%
04:00 +16°C° 0 mm 3 m/s 750 mmHg 93%
05:00 +16°C° 0 mm 3 m/s 750 mmHg 93%
06:00 +16°C° 0 mm 3 m/s 750 mmHg 93%
07:00 +16°C° 0.1 mm 3 m/s 750 mmHg 92%
08:00 +17°C° 0.1 mm 3 m/s 750 mmHg 91%
09:00 +17°C° 0.1 mm 3 m/s 750 mmHg 89%
10:00 +18°C° 0.1 mm 3 m/s 750 mmHg 89%
11:00 +18°C° 0.1 mm 3 m/s 750 mmHg 89%
12:00 +18°C° 0.1 mm 3 m/s 750 mmHg 89%
13:00 +18°C° 0.1 mm 3 m/s 750 mmHg 89%
14:00 +19°C° 0.1 mm 3 m/s 750 mmHg 88%
15:00 +19°C° 0.1 mm 3 m/s 750 mmHg 88%
16:00 +19°C° 0 mm 2 m/s 750 mmHg 89%
17:00 +19°C° 0 mm 2 m/s 749 mmHg 89%
18:00 +19°C° 0 mm 2 m/s 749 mmHg 90%
19:00 +19°C° 0 mm 2 m/s 749 mmHg 91%
20:00 +18°C° 0 mm 2 m/s 749 mmHg 92%
21:00 +18°C° 0 mm 2 m/s 750 mmHg 94%
22:00 +18°C° 0.3 mm 2 m/s 749 mmHg 94%
23:00 +18°C° 0.3 mm 3 m/s 749 mmHg 94%

Depois de amanhã, 16 Agosto, Domingo

Tempo Temperatura Precipitação Vento Pressão Humidade
00:00 +17°C° 0.3 mm 4 m/s 748 mmHg 95%
01:00 +17°C° 0.1 mm 4 m/s 748 mmHg 95%
02:00 +15°C° 0.1 mm 4 m/s 748 mmHg 95%
03:00 +15°C° 0.1 mm 4 m/s 748 mmHg 95%
04:00 +16°C° 0.1 mm 3 m/s 747 mmHg 95%
05:00 +16°C° 0.1 mm 3 m/s 747 mmHg 95%
06:00 +16°C° 0.1 mm 3 m/s 747 mmHg 95%
07:00 +17°C° 0.1 mm 3 m/s 747 mmHg 94%
08:00 +17°C° 0.1 mm 3 m/s 747 mmHg 93%
09:00 +18°C° 0.1 mm 2 m/s 747 mmHg 92%
10:00 +19°C° 0.1 mm 2 m/s 747 mmHg 90%
11:00 +20°C° 0.1 mm 2 m/s 747 mmHg 87%
12:00 +21°C° 0.1 mm 2 m/s 747 mmHg 84%
13:00 +21°C° 1 mm 2 m/s 747 mmHg 82%
14:00 +23°C° 1 mm 2 m/s 746 mmHg 80%
15:00 +23°C° 1 mm 2 m/s 746 mmHg 78%
16:00 +21°C° 1.4 mm 2 m/s 746 mmHg 80%
17:00 +21°C° 1.4 mm 2 m/s 746 mmHg 83%
18:00 +21°C° 1.4 mm 1 m/s 745 mmHg 85%
19:00 +19°C° 0.5 mm 2 m/s 745 mmHg 87%
20:00 +18°C° 0.5 mm 2 m/s 746 mmHg 89%
21:00 +16°C° 0.5 mm 2 m/s 746 mmHg 92%
22:00 +16°C° 0.1 mm 1 m/s 745 mmHg 93%
23:00 +16°C° 0.1 mm 1 m/s 745 mmHg 93%

17 Agosto, Segunda-feira

Tempo Temperatura Precipitação Vento Pressão Humidade
00:00 +15°C° 0.1 mm 1 m/s 745 mmHg 94%
01:00 +15°C° 0.1 mm 1 m/s 745 mmHg 94%
02:00 +15°C° 0.1 mm 1 m/s 745 mmHg 94%
03:00 +14°C° 0.1 mm 1 m/s 745 mmHg 95%
04:00 +15°C° 0.1 mm 1 m/s 744 mmHg 94%
05:00 +15°C° 0.1 mm 1 m/s 744 mmHg 94%
06:00 +15°C° 0.1 mm 1 m/s 744 mmHg 94%
07:00 +16°C° 0 mm 2 m/s 745 mmHg 90%
08:00 +17°C° 0 mm 3 m/s 745 mmHg 86%
09:00 +18°C° 0 mm 3 m/s 745 mmHg 82%
10:00 +18°C° 0.1 mm 4 m/s 745 mmHg 82%
11:00 +18°C° 0.1 mm 4 m/s 745 mmHg 82%
12:00 +18°C° 0.1 mm 4 m/s 745 mmHg 82%
13:00 +19°C° 0.5 mm 5 m/s 745 mmHg 84%
14:00 +19°C° 0.5 mm 6 m/s 745 mmHg 85%
15:00 +19°C° 0.5 mm 6 m/s 745 mmHg 87%
16:00 +19°C° 0.1 mm 6 m/s 745 mmHg 88%
17:00 +17°C° 0.1 mm 7 m/s 746 mmHg 89%
18:00 +17°C° 0.1 mm 7 m/s 746 mmHg 89%
19:00 +16°C° 0.1 mm 6 m/s 746 mmHg 91%
20:00 +16°C° 0.1 mm 6 m/s 746 mmHg 93%
21:00 +15°C° 0.1 mm 5 m/s 747 mmHg 96%
22:00 +15°C° 0.1 mm 5 m/s 747 mmHg 95%
23:00 +15°C° 0.1 mm 5 m/s 747 mmHg 95%

18 Agosto, Terça-feira

Tempo Temperatura Precipitação Vento Pressão Humidade
00:00 +16°C° 0.1 mm 5 m/s 747 mmHg 95%
01:00 +16°C° 0.2 mm 6 m/s 747 mmHg 95%
02:00 +16°C° 0.2 mm 6 m/s 747 mmHg 95%
03:00 +16°C° 0.2 mm 6 m/s 747 mmHg 96%
04:00 +16°C° 0.1 mm 6 m/s 748 mmHg 95%
05:00 +16°C° 0.1 mm 6 m/s 748 mmHg 95%
06:00 +16°C° 0.1 mm 6 m/s 748 mmHg 95%
07:00 +16°C° 0.1 mm 6 m/s 748 mmHg 93%
08:00 +17°C° 0.1 mm 6 m/s 748 mmHg 91%
09:00 +17°C° 0.1 mm 6 m/s 749 mmHg 89%
10:00 +19°C° 0.1 mm 6 m/s 749 mmHg 86%
11:00 +19°C° 0.1 mm 6 m/s 749 mmHg 83%
12:00 +20°C° 0.1 mm 6 m/s 749 mmHg 80%
13:00 +20°C° 0 mm 6 m/s 749 mmHg 78%
14:00 +20°C° 0 mm 6 m/s 749 mmHg 76%
15:00 +20°C° 0 mm 6 m/s 749 mmHg 75%
16:00 +19°C° 0 mm 6 m/s 749 mmHg 78%
17:00 +19°C° 0 mm 5 m/s 749 mmHg 81%
18:00 +18°C° 0 mm 4 m/s 749 mmHg 84%
19:00 +17°C° 0 mm 3 m/s 749 mmHg 88%
20:00 +16°C° 0 mm 3 m/s 749 mmHg 92%
21:00 +15°C° 0 mm 2 m/s 750 mmHg 96%
22:00 +15°C° 0 mm 2 m/s 749 mmHg 96%
23:00 +15°C° 0 mm 2 m/s 749 mmHg 96%

19 Agosto, Quarta-feira

Tempo Temperatura Precipitação Vento Pressão Humidade
00:00 +15°C° 0 mm 2 m/s 749 mmHg 96%
01:00 +15°C° 0 mm 2 m/s 749 mmHg 96%
02:00 +15°C° 0 mm 1 m/s 748 mmHg 95%
03:00 +15°C° 0 mm 1 m/s 748 mmHg 95%
04:00 +15°C° 0 mm 1 m/s 748 mmHg 94%
05:00 +15°C° 0 mm 2 m/s 748 mmHg 93%
06:00 +16°C° 0 mm 2 m/s 748 mmHg 93%
07:00 +16°C° 0 mm 2 m/s 748 mmHg 91%
08:00 +17°C° 0 mm 2 m/s 747 mmHg 90%
09:00 +18°C° 0 mm 3 m/s 747 mmHg 89%
10:00 +19°C° 0 mm 3 m/s 747 mmHg 84%
11:00 +21°C° 0 mm 4 m/s 747 mmHg 80%
12:00 +22°C° 0 mm 4 m/s 747 mmHg 75%
13:00 +22°C° 0 mm 5 m/s 747 mmHg 75%
14:00 +22°C° 0 mm 5 m/s 746 mmHg 75%
15:00 +22°C° 0 mm 5 m/s 746 mmHg 74%
16:00 +21°C° 0 mm 5 m/s 746 mmHg 79%
17:00 +21°C° 0 mm 5 m/s 746 mmHg 83%
18:00 +20°C° 0 mm 5 m/s 745 mmHg 87%
19:00 +20°C° 0.2 mm 5 m/s 745 mmHg 90%
20:00 +19°C° 0.2 mm 5 m/s 745 mmHg 93%
21:00 +19°C° 0.2 mm 5 m/s 745 mmHg 96%
22:00 +19°C° 0.2 mm 5 m/s 745 mmHg 96%
23:00 +19°C° 0.2 mm 5 m/s 744 mmHg 95%
Mostrar mais